Weather in Talsi

Latvia     57°14′40″N   22°35′11″E
temp.,
°C
wind,
m/s
gust,
m/s
humid.,
%
clouds,
%
prec.,
mm/h
press.,
hPa
HPBL,
m
22 january, sat
sat2223:00−2n61282100 0.1 1008994
02:00−3n61187100 0.3 10101044
05:00−3n51191100 0.6 1013992
08:00−3n5108299 0.7 1016869
11:00−3nnw498574 0.0 1019759
14:00−2nnw498384 0.0 1020785
17:00−3nnw398898 0.0 1021597
20:00−6nw259638 0.0 102289
23 january, sun
sun2323:00−5nw259556 0.0 102487
02:00−6nw119656 0.0 102410
05:00−7nw119637 0.0 102610
08:00−7ssw1196100 0.0 102710
11:00−2s2385100 0.0 1029111
14:00−1sw358299 0.0 1030323
17:00−2ssw379375 0.0 1031186
20:00−2ssw389296 0.0 1031253
24 january, mon
mon2423:00−1ssw4992100 0.0 1032299
02:000ssw4129189 0.0 1031392
05:00−2ssw5149234 0.0 1031401
08:00−2ssw51690100 0.0 1030437
11:00−1ssw61690100 0.0 1029502
14:00+1ssw61592100 0.0 1026661
17:00+1ssw61597100 0.0 1025768
20:00+2sw61697100 0.0 1023772
25 january, tue
tue2523:00+3wsw61290100 0.2 1021907
02:00+2sw41196100 0.3 1020489
05:00+2wsw31098100 0.0 1019594
08:00+2nw389597 0.1 1019422
11:00+1nw399347 0.0 1021389
14:00+2nnw49815 0.0 1022770
17:00−1nnw410775 0.0 1024456
20:00−1nnw512765 0.0 1025714
26 january, wed
wed2623:00−2nnw411795 0.0 1026558
02:00−3nnw26845 0.0 1027134
05:00−4nw13925 0.0 102764
08:00−5wnw119471 0.0 102736
11:00−2sw238073 0.0 1026169
14:00−1ssw3570100 0.0 1024395
17:00−2ssw3981100 0.0 1021515
20:00−2s41091100 0.1 1019651